Vorticity
6 4 4 4 5 5 4 4 6 8 4 7 19 14 2 5 17 15 1 3 15 17 12 19 27 -2 -13 11 -1 -12 -1 -1 6 1 -10 -4 4 12 13 6 3 3 7 7 8 14 12 5 4 6 8 10 9 8 8 6 4 5 4 2 2 3 7 11 8 6 6 3 2 3 2 2 2 2 4 4 6 8 8 8 7 6 7 7 8 8
5 2 4 4 6 6 5 7 5 8 5 -4 9 23 13 1 7 18 9 -1 9 20 11 14 29 1 -12 13 3 -6 1 -1 5 2 -1 5 3 9 13 4 6 10 8 6 6 9 9 4 2 6 8 8 9 8 7 6 4 4 3 3 2 4 9 11 8 6 5 4 2 3 3 2 3 2 4 6 7 7 7 6 5 5 7 8 9 9
4 3 7 6 7 5 3 7 4 7 10 -5 -10 11 25 9 -1 13 15 2 9 25 10 5 32 18 -6 6 2 1 12 6 5 3 3 9 3 5 8 3 6 12 9 10 10 5 4 7 5 8 8 7 8 8 7 5 4 4 2 2 2 5 13 12 7 6 5 5 3 3 3 3 3 4 5 6 7 6 6 5 5 6 8 10 11 10
6 7 9 6 4 5 4 4 6 6 7 6 -9 -9 16 16 3 6 9 7 6 17 10 1 31 27 -5 4 5 -4 8 11 10 12 11 11 8 6 8 7 8 11 8 6 8 7 7 9 9 8 7 8 9 6 6 4 3 4 2 2 5 10 15 10 6 6 6 5 4 3 3 4 4 5 7 7 6 5 4 6 7 8 9 10 10 8
8 9 10 10 6 6 7 3 8 7 1 9 -1 -11 2 8 9 7 5 7 -14 -18 -5 1 31 26 -16 -4 14 -0 -1 5 7 11 11 7 6 9 10 6 5 8 8 4 5 9 13 10 6 7 8 8 8 6 6 4 3 3 2 4 9 14 14 8 6 7 7 5 4 4 4 5 6 7 8 5 4 3 4 6 8 10 11 10 9 8
9 9 7 9 7 5 6 4 6 7 5 6 0 3 3 -3 14 14 2 8 -5 -7 12 5 7 12 1 5 4 -4 -1 3 5 8 12 12 11 14 10 4 3 4 7 12 15 9 4 6 7 11 11 7 7 6 5 4 3 2 3 7 12 14 10 7 9 7 5 5 4 5 5 6 8 7 5 3 3 4 4 6 10 12 10 9 10 9
8 9 9 8 9 7 6 6 7 6 7 3 -0 11 5 -9 11 16 2 4 4 6 14 12 2 -1 21 25 -2 -1 12 7 6 8 10 12 13 13 11 13 13 7 2 4 14 8 -4 2 11 10 9 7 7 6 5 4 3 3 5 11 12 10 9 9 9 7 5 5 4 4 6 8 7 3 3 4 4 4 5 8 10 11 9 8 8 9
7 8 9 6 5 7 7 5 5 7 7 3 4 11 7 -6 -7 3 9 5 10 15 7 22 24 -3 13 26 -0 5 20 14 7 1 -2 0 2 2 2 10 11 7 4 -2 -1 -1 -3 6 12 9 7 7 6 5 4 3 3 4 8 12 11 8 9 8 6 5 5 4 4 4 6 6 3 2 4 4 3 4 6 8 8 9 8 7 7 8
7 8 10 14 11 6 7 8 4 7 7 4 6 8 8 8 -10 -12 11 12 15 32 28 30 19 -13 0 20 5 -1 3 9 10 3 9 13 6 1 -5 -2 3 7 14 12 2 -2 4 11 9 7 7 5 5 4 3 4 3 6 10 12 11 8 7 6 5 6 5 4 5 5 5 3 3 4 4 4 5 7 7 7 9 10 9 7 6 7
12 9 3 11 25 14 0 5 7 6 9 6 9 13 11 18 6 -18 -4 15 9 11 24 32 20 1 3 6 10 8 -7 -2 13 15 22 19 7 7 7 4 7 11 11 7 5 5 8 11 6 6 7 4 4 3 2 4 4 7 11 11 10 9 7 6 6 6 5 4 5 4 3 3 4 4 4 4 6 8 10 10 11 12 10 8 7 7
16 29 16 -6 20 39 14 8 13 3 8 6 0 15 18 17 16 -11 -15 14 14 -5 4 21 21 17 7 -8 -2 9 -2 -7 3 7 10 12 8 6 9 8 4 3 -3 -6 2 7 7 8 8 7 5 4 4 3 3 4 5 8 10 10 9 9 8 7 6 5 4 5 4 3 3 4 5 4 4 5 7 9 11 10 9 9 8 7 6 4
-3 26 43 0 -5 32 29 26 26 2 10 18 -7 1 22 18 17 3 -17 -2 9 0 10 22 12 4 11 11 -1 -3 5 6 2 -3 -4 8 18 13 10 10 7 4 1 3 6 7 8 8 7 6 4 5 4 3 3 3 6 7 7 9 9 9 9 7 6 4 4 5 3 3 4 5 4 4 5 7 9 10 10 9 6 4 4 4 4 4
-17 -7 37 24 -8 -1 9 22 31 8 7 24 4 -10 10 21 25 11 -21 -22 -7 -6 9 25 11 0 13 23 11 -1 8 16 15 9 -2 -3 6 14 16 13 12 12 10 12 10 7 9 6 6 7 5 5 4 3 3 3 5 6 7 10 9 10 9 6 5 5 5 4 3 4 4 4 4 4 7 9 10 10 9 9 7 4 4 3 4 6
1 -7 13 30 26 19 9 6 18 17 -0 6 13 -4 -7 11 31 27 -6 -17 -8 -11 3 19 10 3 -1 -5 1 2 1 3 7 11 9 3 -0 10 21 16 12 13 12 14 12 10 10 7 8 7 3 4 5 3 3 3 5 6 7 10 10 10 9 6 6 5 4 3 3 5 4 3 4 5 9 10 8 9 8 9 9 8 8 9 11 10
5 9 -6 -6 12 18 13 -4 -3 22 18 4 12 6 -9 -5 17 38 25 4 -2 -9 -0 11 9 10 -0 -10 4 9 4 5 4 4 8 11 11 10 14 15 12 11 12 15 14 11 11 10 8 5 3 5 4 2 3 3 5 7 7 10 10 10 9 8 7 4 3 3 4 5 4 3 6 8 10 9 8 10 9 11 14 16 17 19 21 17
3 18 0 -17 -8 3 17 13 -5 11 31 25 18 7 -4 -7 1 29 40 22 11 6 6 7 7 15 10 -1 4 3 -1 5 6 7 6 6 12 10 6 10 12 12 13 15 13 9 9 9 6 4 3 4 4 2 2 3 6 7 8 10 10 9 8 6 6 4 4 5 5 5 4 5 8 10 10 8 9 9 10 14 17 19 20 20 22 19
8 15 8 -1 4 8 20 36 15 -4 16 42 35 3 -9 2 -1 8 30 27 12 6 13 13 -2 4 14 5 5 8 4 3 6 12 10 3 5 8 7 8 9 11 13 14 13 8 7 7 3 2 2 3 4 2 1 4 6 7 9 11 10 8 8 6 5 5 5 6 6 4 5 7 9 11 8 7 8 9 11 14 14 14 14 18 24 20
3 14 23 20 21 16 25 49 25 -16 -2 35 41 8 -10 10 6 -8 12 28 17 -1 7 27 10 -7 3 3 -1 4 3 0 1 5 9 7 4 4 8 7 4 6 7 10 12 8 7 6 1 0 1 2 4 2 1 4 5 7 10 11 10 8 8 7 5 5 6 6 5 5 6 8 9 8 6 7 9 11 12 11 9 10 11 20 30 25
3 11 17 20 22 12 32 55 12 -17 6 21 33 26 -4 3 13 -2 -1 18 28 8 -9 18 29 4 -1 5 5 6 8 9 5 2 10 13 8 6 10 10 6 5 6 9 11 9 7 4 1 1 2 2 4 2 1 2 4 8 10 10 9 8 9 8 6 6 7 6 5 6 7 7 8 6 7 11 11 10 10 8 9 11 13 26 34 30
11 7 -3 13 27 5 25 47 -7 -19 18 7 15 31 -2 -6 17 13 -2 0 27 29 -3 -0 21 17 7 7 12 16 14 12 6 3 7 10 12 13 13 14 12 8 7 8 9 8 6 3 1 2 2 3 3 2 1 2 4 8 10 10 9 8 8 7 6 7 6 5 5 5 6 5 6 7 10 12 9 8 7 7 9 10 18 31 31 28
13 8 -8 7 34 8 5 31 -3 -21 5 -5 -4 18 9 3 12 12 4 -6 12 29 19 8 6 11 18 12 12 19 14 8 3 1 3 9 17 15 7 7 9 8 7 6 7 5 2 3 2 2 4 2 1 2 1 2 5 8 11 11 9 8 9 7 7 7 6 5 5 5 6 5 5 8 11 9 7 8 8 8 8 10 23 31 26 28
1 3 -1 -2 28 15 -7 28 32 -1 -3 1 -6 2 14 12 9 18 10 -6 4 13 20 30 12 0 15 14 6 11 16 16 9 0 1 11 21 16 7 9 9 9 9 6 6 3 0 3 3 2 3 1 1 3 2 2 6 10 10 10 10 8 8 7 7 7 5 5 5 5 4 5 6 8 9 8 8 10 9 7 7 11 25 30 22 29
4 6 10 -10 8 14 -8 18 40 8 -3 11 5 -0 10 10 12 23 7 -8 5 3 5 28 19 1 7 13 9 7 12 19 17 16 13 9 15 15 11 15 14 9 8 6 4 1 -0 2 2 2 1 1 4 4 2 3 6 11 11 10 10 8 8 9 7 6 6 4 4 4 3 5 7 7 8 8 9 10 9 7 7 12 27 31 19 21
11 16 19 -7 3 19 1 5 26 22 6 4 9 9 10 14 12 5 2 8 11 1 5 20 17 7 2 2 10 10 10 12 13 26 30 12 8 13 12 13 13 8 6 3 2 1 0 2 2 1 1 3 6 2 2 6 9 12 12 8 9 9 8 8 7 6 5 3 3 2 4 7 7 7 9 9 10 11 9 7 9 11 20 31 26 17
4 11 18 1 2 14 8 3 15 27 6 -9 15 18 -0 14 17 -8 -4 17 10 -3 3 10 9 11 6 4 11 10 13 14 5 14 30 20 8 10 11 10 9 8 6 3 3 2 2 3 2 3 5 5 4 2 4 9 12 13 12 9 9 9 8 9 7 6 4 3 3 3 5 9 8 8 10 10 11 12 10 7 9 11 12 23 31 25
4 5 14 5 -4 2 16 13 9 21 6 -7 18 11 -13 12 27 4 -5 8 11 1 -1 5 7 5 4 3 5 3 9 15 9 8 16 16 8 2 5 9 7 6 6 4 4 3 3 5 5 5 6 5 3 4 7 10 13 14 12 10 9 8 9 8 6 5 3 2 3 4 7 9 8 9 10 10 10 11 10 7 7 11 12 15 23 29
6 4 12 11 -3 2 23 14 1 21 20 3 8 4 2 20 19 7 1 3 13 6 -0 14 15 3 2 2 -1 1 5 11 17 17 11 11 14 8 3 7 9 7 6 4 5 6 6 7 6 5 5 4 5 7 9 11 15 15 11 10 10 10 10 8 6 5 3 3 4 6 9 9 9 9 9 7 7 7 10 8 6 8 12 13 15 23
7 7 14 13 -2 2 21 7 -3 17 17 4 5 5 17 23 7 4 11 12 13 1 -3 18 19 5 7 8 3 4 6 12 21 24 18 13 17 16 9 9 12 11 9 8 8 9 8 7 6 6 6 6 7 9 12 15 15 14 11 9 9 10 9 7 5 4 3 4 5 7 9 8 8 9 8 5 3 4 7 8 8 7 9 13 14 16
6 9 13 11 0 5 16 4 2 17 8 -1 7 7 13 17 4 3 11 12 8 -3 -0 18 21 12 7 7 11 10 11 20 23 24 22 11 9 15 13 10 11 10 10 10 10 10 9 8 7 7 8 9 10 13 15 16 14 12 10 9 9 10 8 6 5 5 5 5 6 8 8 8 7 8 8 6 4 4 5 6 8 8 7 11 13 13
3 5 11 10 0 5 13 3 3 11 -1 -2 12 14 14 13 5 4 7 9 7 4 7 8 9 14 11 9 14 12 9 12 14 19 22 15 12 14 12 10 10 9 10 10 10 10 8 9 9 10 11 11 12 13 14 14 13 10 9 9 9 8 7 6 5 5 5 6 8 8 6 7 8 7 8 9 7 5 6 6 6 8 7 8 11 12
1 -1 9 12 -0 -0 8 8 11 7 -7 -2 14 14 9 8 7 5 6 7 3 1 8 6 0 7 14 17 17 10 8 9 8 11 11 9 11 11 11 13 11 11 11 9 10 11 10 12 13 12 12 11 11 11 11 12 11 9 9 9 9 8 8 7 6 6 7 7 8 7 6 6 7 7 7 9 9 8 7 7 6 7 8 7 9 12
9 -4 0 7 2 1 2 5 17 15 -2 -1 10 8 2 5 9 6 8 13 5 -2 4 9 6 -0 -0 14 23 16 13 15 13 14 11 9 11 9 9 13 11 12 13 11 12 13 12 12 11 10 10 9 8 9 12 13 9 8 10 9 9 10 8 8 8 7 8 8 6 6 6 6 7 7 7 8 9 9 8 8 8 7 8 6 7 12
16 9 3 -1 2 13 10 3 10 15 8 6 10 9 3 3 7 5 7 12 6 0 1 7 22 21 1 4 18 15 12 12 11 14 14 12 13 12 11 12 11 12 13 12 13 12 10 10 9 10 10 9 9 9 11 11 7 7 9 9 10 12 10 10 11 9 9 7 5 5 5 7 8 8 7 8 9 9 8 8 8 8 9 6 5 12
11 16 11 -3 -4 12 16 6 -0 4 10 10 11 13 8 6 9 7 7 11 9 10 3 -7 13 35 24 17 24 21 17 16 13 12 11 10 10 11 11 10 10 11 11 13 13 10 9 9 8 10 11 9 8 8 8 9 7 8 8 7 9 10 10 11 10 8 8 5 4 5 5 7 9 8 8 8 9 9 7 7 8 7 8 8 5 9
9 11 13 6 1 8 14 9 1 2 12 15 13 10 5 5 10 7 5 5 3 12 13 -4 -2 19 24 22 20 13 9 10 10 10 10 10 10 10 10 10 10 11 12 13 12 9 8 9 8 9 9 7 7 6 7 7 7 7 7 7 8 9 8 9 8 5 6 4 4 6 6 7 8 8 8 9 9 10 8 6 8 7 6 9 8 6
10 7 8 8 7 8 8 7 6 11 17 19 19 17 8 6 10 9 13 17 7 6 16 11 -2 -4 1 4 4 4 4 4 6 8 7 8 10 9 10 10 8 10 11 10 10 8 7 7 7 6 5 5 6 6 6 7 7 8 8 7 8 6 5 6 5 3 4 3 4 6 6 8 8 8 9 9 9 10 9 7 8 8 7 8 9 9
11 10 8 6 7 12 9 2 4 14 16 12 16 21 15 14 16 9 8 21 20 9 9 11 -1 -11 -6 3 3 6 12 10 8 9 9 9 10 9 9 9 8 8 8 7 6 6 6 6 6 5 5 5 5 6 7 7 8 8 8 8 8 6 6 7 6 5 5 4 6 7 7 8 8 8 10 9 8 9 9 9 8 8 9 8 7 11
11 7 6 3 1 7 9 5 8 17 16 10 11 14 8 10 23 16 -5 -4 8 6 2 6 5 1 7 12 6 4 10 11 10 11 11 10 10 8 9 10 10 9 8 7 6 5 4 4 3 3 4 4 5 6 6 7 9 9 9 9 7 5 5 6 6 6 6 6 7 7 8 9 9 9 9 8 8 9 8 9 7 5 5 5 5 8
27 19 16 16 16 16 10 8 14 20 17 11 12 21 19 9 16 23 10 3 12 11 3 2 3 6 10 12 9 5 2 -0 2 7 9 9 9 9 10 11 11 11 10 9 8 7 6 6 6 7 7 6 7 7 7 7 8 10 11 11 10 9 9 8 9 9 10 10 9 8 9 9 8 9 10 8 7 6 6 5 5 4 3 4 5 6
25 20 18 14 18 23 12 5 13 18 17 17 13 18 26 18 12 16 17 16 18 15 11 9 7 8 9 8 9 10 6 2 5 8 8 6 5 5 7 8 8 9 8 8 9 10 10 11 12 11 11 10 10 10 10 9 8 9 12 12 11 10 9 10 12 13 14 13 10 8 8 7 8 9 10 9 6 3 3 3 3 5 5 5 7 8
4 9 23 17 11 22 20 9 11 9 7 17 18 10 11 13 10 9 11 13 14 12 11 12 9 7 7 4 5 8 9 9 9 8 6 4 4 7 10 9 5 3 4 6 8 10 11 12 12 11 9 9 12 13 12 11 10 10 11 12 11 9 8 8 11 14 16 15 11 8 5 6 10 10 9 8 4 0 1 3 4 6 8 9 9 9
4 9 29 24 13 25 28 13 11 13 7 8 14 12 8 6 5 6 7 9 10 8 8 9 8 6 5 5 6 6 4 4 5 6 6 5 4 6 9 8 5 3 4 7 9 12 12 12 12 11 8 7 10 13 14 13 12 11 9 9 9 8 5 4 3 5 9 12 12 10 7 7 11 11 9 6 3 2 2 4 8 10 12 12 10 9
6 3 11 6 -2 12 24 13 9 20 25 17 11 8 8 8 7 8 9 10 11 9 8 9 9 9 8 7 6 5 4 5 6 7 7 7 6 5 6 6 6 7 8 10 12 12 12 10 10 11 9 7 9 12 14 13 12 9 7 7 9 10 10 7 5 5 6 10 13 13 11 11 11 10 8 5 4 6 8 9 12 15 14 13 11 10
6 3 6 6 -2 0 10 7 0 5 16 20 17 11 7 8 9 8 8 10 11 10 10 9 10 12 12 12 11 10 9 9 9 9 9 9 9 9 9 9 9 10 10 11 12 13 13 12 11 9 7 4 5 10 14 14 12 10 7 5 6 7 6 5 4 5 5 6 9 12 13 13 10 8 6 5 8 12 13 13 13 13 12 10 9 10
5 2 0 5 8 5 3 1 0 2 6 9 13 14 11 9 11 10 8 8 8 9 10 11 11 11 10 11 12 12 12 12 11 10 10 10 11 12 12 12 12 11 10 8 10 12 13 12 12 14 12 8 5 10 15 17 16 15 12 10 10 12 14 15 15 16 17 15 13 13 13 12 9 6 3 5 10 13 13 11 9 8 8 9 8 8
4 5 2 1 5 8 6 3 3 5 6 4 6 8 8 7 8 8 7 6 7 7 6 6 7 7 7 8 9 9 10 10 10 10 9 9 10 11 11 11 9 7 6 6 7 10 13 12 12 14 15 12 8 7 10 14 16 16 15 18 22 25 25 23 19 17 18 17 15 13 13 13 12 9 7 9 12 13 12 10 8 7 8 8 8 8
5 6 6 5 3 3 5 7 7 6 5 5 7 8 7 7 7 6 6 7 7 8 8 7 8 8 8 8 9 10 11 11 11 12 11 10 10 8 8 7 5 4 6 8 7 8 9 10 10 10 11 10 6 2 3 9 14 16 14 13 14 12 10 9 11 13 14 15 14 13 13 14 16 17 15 15 14 13 13 12 10 10 9 9 9 9
14 9 6 7 8 6 4 4 6 6 3 2 4 5 4 4 5 5 6 7 7 9 10 11 11 11 11 11 11 11 11 12 12 12 12 12 11 10 8 7 6 7 9 9 9 9 10 10 11 11 10 9 8 8 12 16 17 16 14 11 10 11 11 14 16 16 14 12 11 10 11 12 14 16 15 14 12 11 11 11 11 11 10 9 9 9
15 15 9 6 6 7 8 7 6 7 6 3 2 2 1 2 5 7 8 9 10 11 12 12 12 12 11 11 11 10 10 11 11 11 11 11 10 10 10 11 11 11 11 10 9 10 11 11 11 12 14 18 23 24 23 21 17 13 9 6 5 5 5 5 5 4 3 4 6 7 9 10 10 10 11 12 11 10 9 9 9 10 10 10 10 9
5 9 12 13 12 10 9 7 5 4 6 8 9 9 8 8 9 10 10 11 11 11 11 11 11 11 11 10 10 10 10 10 10 10 10 10 9 9 9 9 10 10 11 11 10 9 10 11 15 23 27 25 19 14 11 12 14 12 10 7 5 3 3 3 5 6 7 8 8 8 8 9 9 10 10 10 11 10 10 9 9 9 10 11 10 10
5 4 7 10 13 14 13 12 11 9 9 9 9 9 10 10 11 11 11 11 11 11 10 10 10 10 10 9 9 9 9 9 10 10 11 11 10 10 8 8 8 9 9 10 9 9 9 7 6 8 6 -2 -7 -2 5 9 10 10 9 8 8 8 9 9 10 10 10 10 10 10 9 9 10 11 12 12 13 13 13 12 11 11 11 10 11 11
Height
5725 5728 5731 5735 5739 5742 5745 5748 5752 5755 5758 5760 5763 5766 5769 5772 5774 5777 5777 5772 5773 5779 5781 5786 5792 5789 5791 5797 5793 5790 5793 5795 5797 5800 5803 5804 5803 5803 5802 5804 5804 5805 5809 5812 5814 5815 5816 5818 5819 5820 5821 5822 5822 5823 5824 5824 5825 5825 5825 5825 5825 5826 5826 5825 5825 5824 5824 5824 5823 5822 5822 5821 5820 5819 5818 5817 5815 5814 5812 5810 5809 5809 5809 5808 5807 5806
5720 5723 5729 5733 5737 5740 5743 5746 5749 5752 5754 5757 5761 5764 5766 5769 5773 5776 5779 5774 5769 5776 5780 5783 5789 5787 5789 5793 5790 5789 5791 5792 5795 5798 5800 5802 5802 5800 5801 5802 5802 5804 5807 5809 5811 5812 5814 5816 5818 5819 5820 5820 5821 5821 5822 5822 5823 5823 5823 5823 5824 5824 5824 5823 5823 5823 5822 5822 5821 5821 5820 5820 5819 5818 5816 5815 5813 5812 5811 5809 5808 5807 5806 5806 5805 5804
5715 5720 5727 5730 5733 5736 5739 5742 5746 5749 5752 5754 5758 5762 5764 5767 5771 5774 5779 5777 5769 5771 5778 5780 5785 5787 5789 5792 5788 5786 5788 5790 5794 5796 5797 5800 5801 5798 5799 5800 5801 5802 5805 5806 5809 5811 5813 5815 5816 5817 5817 5818 5819 5819 5820 5821 5821 5822 5821 5821 5822 5822 5821 5821 5821 5821 5821 5820 5820 5819 5818 5818 5817 5816 5814 5812 5811 5810 5809 5807 5806 5805 5804 5804 5803 5802
5712 5718 5724 5726 5729 5732 5735 5739 5743 5747 5749 5750 5753 5758 5761 5765 5768 5771 5776 5777 5769 5769 5776 5779 5782 5785 5788 5790 5785 5783 5786 5789 5793 5793 5793 5797 5798 5795 5796 5799 5799 5801 5803 5804 5806 5809 5811 5813 5814 5815 5815 5816 5817 5817 5818 5819 5819 5820 5820 5820 5820 5820 5819 5819 5819 5819 5819 5819 5818 5817 5817 5816 5815 5814 5813 5810 5809 5808 5807 5806 5804 5803 5802 5801 5801 5800
5710 5716 5719 5722 5725 5728 5732 5735 5739 5743 5745 5747 5749 5753 5758 5763 5767 5771 5773 5771 5768 5768 5774 5778 5780 5783 5785 5784 5780 5780 5785 5787 5788 5790 5791 5794 5795 5792 5793 5796 5797 5799 5801 5801 5804 5807 5809 5810 5811 5812 5813 5814 5815 5815 5816 5817 5817 5818 5818 5818 5817 5818 5817 5817 5817 5817 5817 5817 5816 5816 5815 5814 5814 5812 5811 5809 5807 5806 5805 5804 5803 5801 5800 5799 5798 5798
5706 5710 5714 5718 5721 5725 5728 5731 5735 5740 5742 5743 5747 5750 5756 5761 5766 5770 5767 5765 5766 5767 5771 5777 5778 5779 5782 5781 5776 5777 5783 5784 5784 5787 5789 5791 5792 5789 5789 5792 5795 5797 5798 5799 5802 5804 5806 5807 5808 5809 5810 5811 5812 5813 5814 5815 5815 5816 5816 5816 5815 5815 5815 5815 5815 5815 5815 5815 5815 5814 5813 5812 5811 5810 5809 5807 5805 5804 5803 5803 5801 5800 5798 5797 5796 5795
5702 5705 5709 5713 5717 5721 5724 5728 5732 5737 5739 5740 5744 5750 5754 5758 5763 5767 5764 5761 5764 5764 5767 5773 5775 5776 5779 5778 5774 5774 5780 5782 5782 5785 5787 5788 5789 5786 5785 5788 5791 5794 5796 5798 5799 5801 5803 5804 5805 5807 5807 5808 5809 5810 5811 5812 5813 5813 5813 5813 5813 5813 5812 5812 5812 5812 5812 5812 5812 5812 5811 5810 5809 5808 5806 5805 5804 5803 5802 5801 5800 5798 5796 5795 5794 5792
5698 5701 5705 5709 5713 5717 5719 5724 5728 5733 5736 5737 5742 5749 5750 5753 5759 5764 5762 5759 5761 5763 5765 5769 5772 5774 5776 5778 5776 5773 5776 5778 5778 5782 5783 5785 5786 5783 5783 5785 5789 5793 5794 5795 5796 5797 5800 5802 5803 5804 5804 5805 5807 5808 5809 5809 5810 5811 5811 5811 5810 5810 5810 5810 5810 5810 5810 5810 5809 5809 5808 5807 5806 5805 5803 5802 5802 5802 5801 5800 5798 5796 5794 5792 5791 5789
5695 5698 5701 5704 5708 5712 5715 5721 5725 5729 5733 5735 5740 5745 5747 5750 5754 5759 5761 5759 5759 5760 5761 5765 5768 5771 5773 5776 5777 5773 5772 5773 5774 5778 5780 5782 5782 5779 5781 5783 5786 5790 5790 5792 5794 5796 5798 5800 5800 5801 5802 5803 5804 5805 5806 5807 5807 5808 5808 5808 5808 5808 5808 5808 5808 5808 5808 5807 5807 5806 5805 5804 5803 5801 5800 5799 5799 5800 5799 5798 5796 5793 5791 5789 5788 5787
5691 5695 5699 5701 5704 5708 5712 5717 5721 5726 5729 5733 5738 5740 5744 5749 5750 5752 5757 5759 5758 5756 5756 5761 5763 5766 5769 5773 5773 5770 5769 5770 5771 5774 5775 5777 5776 5775 5778 5781 5783 5786 5787 5788 5791 5793 5795 5797 5797 5798 5799 5801 5802 5803 5804 5804 5804 5805 5805 5805 5805 5805 5805 5805 5805 5805 5805 5805 5804 5803 5803 5801 5800 5798 5797 5796 5797 5798 5797 5795 5792 5790 5788 5786 5785 5784
5688 5692 5695 5698 5701 5705 5709 5713 5717 5722 5725 5729 5734 5736 5740 5744 5745 5746 5751 5755 5755 5751 5752 5758 5761 5762 5765 5770 5769 5765 5766 5769 5769 5768 5769 5771 5772 5772 5776 5779 5780 5782 5783 5785 5788 5790 5792 5794 5795 5796 5797 5798 5799 5801 5801 5802 5802 5802 5802 5802 5802 5802 5802 5802 5802 5802 5802 5802 5801 5801 5800 5799 5797 5795 5794 5794 5794 5794 5793 5791 5788 5787 5785 5784 5782 5780
5686 5687 5689 5694 5698 5702 5705 5708 5712 5717 5721 5725 5730 5733 5736 5739 5740 5743 5746 5748 5748 5747 5750 5756 5760 5761 5761 5765 5767 5763 5764 5766 5763 5763 5767 5769 5772 5773 5775 5777 5778 5780 5782 5784 5786 5787 5789 5791 5792 5794 5795 5796 5797 5798 5799 5799 5799 5799 5799 5799 5799 5799 5799 5799 5799 5800 5800 5799 5799 5798 5797 5796 5794 5792 5791 5791 5791 5790 5789 5787 5785 5783 5782 5781 5779 5777
5681 5684 5685 5689 5694 5698 5700 5703 5708 5713 5715 5719 5725 5729 5732 5734 5736 5738 5740 5741 5743 5746 5750 5754 5758 5760 5758 5761 5764 5761 5759 5759 5756 5760 5765 5768 5771 5772 5774 5776 5777 5779 5781 5782 5783 5785 5787 5788 5790 5791 5793 5794 5795 5796 5796 5797 5797 5797 5797 5797 5796 5797 5796 5796 5797 5797 5797 5796 5796 5795 5794 5793 5791 5789 5788 5787 5787 5786 5785 5783 5781 5780 5779 5778 5776 5773
5675 5680 5681 5685 5690 5692 5695 5699 5704 5707 5710 5715 5721 5724 5727 5730 5731 5732 5735 5737 5739 5744 5749 5752 5756 5758 5755 5755 5758 5756 5753 5754 5755 5758 5761 5765 5768 5770 5773 5774 5775 5777 5779 5780 5781 5783 5785 5786 5788 5789 5790 5791 5792 5793 5794 5794 5794 5794 5794 5794 5794 5794 5794 5794 5794 5794 5794 5793 5793 5792 5791 5790 5788 5786 5785 5784 5783 5781 5780 5779 5777 5776 5774 5773 5771 5768
5670 5673 5676 5682 5686 5686 5690 5696 5701 5705 5707 5712 5718 5721 5725 5728 5727 5728 5731 5734 5737 5741 5745 5750 5753 5754 5750 5750 5753 5752 5750 5752 5753 5755 5759 5763 5766 5768 5770 5771 5773 5775 5776 5778 5779 5781 5782 5783 5785 5786 5787 5789 5790 5791 5791 5792 5792 5792 5792 5792 5792 5792 5792 5791 5792 5792 5791 5791 5790 5789 5788 5787 5785 5783 5781 5780 5779 5777 5775 5774 5772 5770 5768 5767 5765 5762
5667 5671 5675 5679 5681 5682 5687 5693 5698 5703 5706 5709 5715 5718 5720 5724 5726 5728 5730 5733 5737 5739 5741 5745 5747 5747 5745 5745 5747 5747 5747 5748 5750 5754 5758 5760 5762 5764 5767 5768 5770 5772 5774 5775 5777 5778 5780 5781 5782 5784 5785 5786 5787 5788 5789 5789 5789 5789 5789 5789 5789 5789 5789 5789 5789 5789 5788 5788 5787 5787 5786 5784 5782 5780 5778 5776 5775 5773 5771 5769 5767 5765 5763 5762 5760 5758
5664 5669 5673 5676 5678 5681 5685 5690 5695 5700 5704 5706 5709 5713 5717 5721 5725 5728 5729 5731 5735 5735 5737 5740 5740 5739 5740 5741 5741 5741 5743 5746 5749 5753 5756 5757 5759 5761 5763 5765 5767 5769 5771 5772 5774 5776 5777 5778 5780 5782 5783 5784 5785 5786 5786 5786 5786 5786 5786 5786 5786 5786 5786 5786 5786 5786 5786 5785 5785 5784 5782 5781 5779 5777 5775 5773 5771 5769 5767 5765 5762 5760 5759 5757 5755 5754
5661 5665 5671 5673 5676 5679 5683 5688 5692 5697 5702 5703 5705 5710 5716 5719 5722 5726 5727 5728 5729 5729 5732 5736 5735 5735 5736 5737 5737 5737 5740 5744 5747 5751 5753 5754 5757 5758 5760 5762 5764 5766 5768 5770 5771 5773 5774 5776 5778 5780 5781 5782 5783 5783 5784 5784 5784 5783 5784 5783 5783 5783 5783 5783 5783 5783 5783 5782 5782 5781 5779 5777 5776 5774 5772 5770 5768 5766 5764 5761 5758 5756 5753 5751 5749 5748
5660 5664 5669 5671 5673 5677 5681 5684 5688 5693 5698 5701 5704 5709 5713 5714 5717 5720 5722 5723 5724 5725 5729 5732 5732 5733 5734 5734 5735 5737 5740 5743 5745 5749 5751 5752 5754 5756 5758 5759 5761 5763 5766 5767 5769 5770 5772 5774 5776 5777 5778 5779 5780 5780 5781 5781 5781 5781 5781 5781 5781 5781 5781 5781 5781 5780 5780 5779 5779 5778 5776 5774 5773 5771 5769 5767 5765 5763 5761 5757 5754 5751 5748 5745 5743 5742
5657 5661 5665 5668 5671 5676 5678 5679 5684 5689 5693 5697 5703 5707 5708 5710 5713 5716 5718 5720 5722 5723 5726 5728 5730 5731 5731 5733 5735 5737 5740 5742 5744 5746 5748 5750 5752 5754 5755 5756 5758 5761 5763 5764 5766 5768 5770 5772 5773 5774 5775 5776 5777 5777 5777 5778 5778 5778 5778 5778 5778 5778 5778 5778 5778 5777 5777 5776 5776 5774 5773 5771 5770 5768 5766 5764 5762 5760 5757 5754 5751 5747 5744 5741 5738 5737
5655 5658 5661 5664 5669 5673 5673 5674 5680 5684 5688 5691 5696 5701 5703 5706 5710 5714 5717 5719 5720 5721 5723 5726 5728 5728 5727 5729 5732 5734 5736 5738 5741 5743 5745 5747 5749 5751 5752 5754 5756 5758 5760 5762 5764 5766 5768 5769 5770 5771 5772 5773 5773 5774 5774 5775 5775 5775 5775 5775 5775 5775 5775 5775 5775 5774 5774 5773 5772 5771 5770 5768 5767 5765 5764 5762 5759 5757 5754 5751 5747 5744 5740 5737 5735 5734
5653 5656 5658 5660 5665 5669 5670 5673 5679 5683 5686 5688 5692 5696 5699 5702 5706 5710 5713 5715 5717 5719 5720 5723 5725 5725 5723 5725 5727 5729 5729 5732 5736 5739 5742 5744 5746 5748 5750 5751 5753 5755 5757 5759 5761 5763 5765 5766 5767 5768 5769 5770 5770 5771 5771 5771 5772 5772 5772 5772 5772 5772 5772 5772 5772 5771 5771 5770 5769 5768 5767 5766 5764 5763 5761 5759 5757 5754 5751 5748 5745 5742 5738 5735 5733 5732
5651 5653 5655 5658 5661 5666 5670 5673 5676 5681 5687 5688 5690 5694 5697 5700 5703 5706 5710 5713 5714 5716 5719 5721 5722 5722 5722 5722 5724 5725 5726 5729 5733 5737 5739 5741 5743 5745 5746 5748 5750 5753 5755 5757 5758 5760 5762 5763 5764 5765 5766 5767 5767 5768 5768 5768 5769 5768 5768 5769 5769 5769 5769 5769 5769 5769 5768 5768 5766 5765 5764 5763 5762 5760 5758 5757 5754 5751 5748 5745 5742 5740 5736 5734 5732 5730
5648 5651 5653 5656 5660 5663 5668 5672 5674 5677 5683 5687 5688 5690 5695 5698 5700 5703 5708 5710 5711 5713 5716 5718 5718 5718 5719 5721 5721 5723 5725 5728 5731 5734 5736 5738 5740 5741 5743 5745 5748 5750 5752 5754 5755 5757 5759 5760 5761 5762 5763 5763 5764 5764 5764 5764 5765 5765 5765 5765 5766 5766 5766 5766 5766 5766 5765 5765 5764 5763 5762 5760 5759 5758 5756 5754 5752 5749 5746 5743 5741 5738 5735 5733 5731 5730
5646 5649 5651 5654 5657 5659 5663 5667 5670 5672 5676 5682 5685 5687 5692 5696 5699 5701 5704 5707 5708 5710 5713 5715 5714 5714 5716 5718 5719 5720 5723 5726 5728 5730 5732 5735 5737 5738 5741 5743 5745 5747 5749 5751 5753 5754 5756 5757 5758 5759 5759 5760 5761 5760 5760 5761 5762 5762 5762 5762 5762 5763 5763 5763 5763 5763 5762 5762 5761 5760 5759 5758 5757 5755 5754 5752 5750 5747 5745 5742 5740 5737 5735 5733 5731 5730
5645 5647 5649 5652 5654 5656 5658 5661 5665 5669 5672 5676 5681 5686 5689 5692 5695 5698 5701 5703 5703 5706 5710 5711 5711 5711 5713 5714 5716 5718 5720 5722 5725 5727 5729 5731 5733 5736 5738 5740 5743 5745 5746 5748 5750 5751 5752 5753 5755 5756 5756 5757 5758 5756 5756 5758 5759 5758 5758 5759 5759 5760 5760 5760 5760 5760 5759 5759 5758 5757 5756 5755 5754 5753 5751 5749 5748 5746 5743 5741 5739 5736 5734 5732 5731 5729
5642 5645 5647 5650 5653 5656 5658 5661 5665 5670 5672 5674 5678 5683 5685 5688 5692 5696 5698 5699 5701 5704 5705 5705 5706 5708 5709 5711 5713 5715 5717 5719 5721 5724 5726 5728 5730 5733 5735 5738 5740 5742 5743 5745 5746 5748 5749 5750 5751 5752 5753 5754 5754 5753 5753 5755 5755 5755 5755 5756 5756 5757 5757 5757 5757 5757 5756 5756 5755 5754 5754 5753 5752 5750 5749 5747 5746 5744 5742 5740 5738 5735 5733 5731 5729 5728
5639 5642 5645 5648 5651 5654 5656 5659 5663 5667 5671 5674 5677 5680 5683 5686 5689 5691 5693 5696 5698 5700 5700 5700 5703 5705 5705 5707 5710 5712 5714 5717 5718 5721 5723 5725 5727 5730 5732 5735 5737 5739 5740 5742 5743 5745 5746 5747 5748 5749 5750 5750 5751 5750 5750 5751 5751 5752 5752 5753 5753 5754 5754 5754 5754 5754 5754 5753 5752 5752 5751 5750 5749 5748 5747 5745 5744 5743 5741 5739 5737 5735 5733 5731 5729 5728
5638 5641 5643 5646 5649 5652 5654 5657 5659 5663 5667 5672 5674 5676 5680 5684 5686 5688 5690 5693 5694 5694 5695 5697 5700 5701 5701 5703 5705 5708 5711 5714 5715 5718 5720 5722 5724 5727 5729 5731 5733 5735 5737 5739 5740 5742 5742 5743 5744 5745 5746 5747 5747 5747 5747 5748 5748 5749 5749 5750 5750 5751 5751 5751 5751 5751 5751 5750 5750 5750 5749 5748 5747 5746 5745 5744 5742 5741 5740 5738 5736 5734 5732 5731 5729 5727
5637 5639 5641 5644 5647 5650 5652 5655 5658 5662 5665 5667 5670 5674 5677 5680 5683 5685 5686 5686 5687 5689 5691 5693 5695 5697 5698 5700 5703 5706 5709 5711 5713 5715 5717 5719 5721 5723 5726 5728 5730 5732 5734 5736 5737 5738 5739 5740 5741 5742 5743 5743 5743 5744 5744 5744 5745 5746 5746 5747 5747 5748 5748 5748 5748 5748 5748 5748 5747 5747 5746 5746 5745 5744 5743 5742 5740 5739 5738 5736 5734 5732 5731 5729 5727 5726
5635 5638 5641 5643 5645 5648 5650 5653 5656 5660 5662 5663 5666 5669 5672 5673 5676 5678 5678 5680 5684 5685 5687 5690 5692 5694 5696 5698 5701 5704 5706 5709 5711 5713 5715 5716 5719 5721 5723 5725 5727 5729 5731 5732 5734 5735 5736 5737 5738 5738 5739 5739 5740 5741 5741 5741 5742 5743 5743 5744 5745 5745 5745 5745 5746 5745 5745 5745 5745 5745 5744 5743 5743 5742 5741 5740 5739 5737 5736 5735 5733 5731 5730 5728 5726 5725
5633 5636 5639 5642 5644 5647 5649 5652 5654 5657 5659 5660 5661 5663 5665 5668 5671 5672 5674 5679 5682 5683 5686 5689 5690 5692 5695 5697 5699 5702 5704 5707 5709 5711 5713 5714 5717 5719 5720 5722 5724 5726 5727 5729 5730 5731 5732 5733 5734 5735 5736 5736 5737 5737 5737 5738 5740 5740 5741 5742 5742 5742 5742 5743 5743 5743 5742 5742 5742 5742 5742 5741 5740 5740 5739 5738 5737 5735 5734 5733 5731 5730 5728 5727 5725 5724
5632 5634 5637 5640 5643 5646 5648 5650 5652 5654 5656 5658 5659 5660 5663 5665 5668 5670 5673 5677 5680 5681 5685 5687 5688 5690 5693 5695 5697 5699 5701 5703 5706 5708 5710 5712 5714 5716 5718 5719 5721 5723 5724 5726 5727 5728 5729 5730 5731 5732 5732 5733 5734 5734 5735 5736 5737 5737 5738 5739 5739 5739 5740 5740 5740 5740 5740 5740 5739 5739 5739 5738 5738 5737 5736 5735 5735 5733 5732 5731 5730 5728 5727 5726 5724 5723
5631 5633 5636 5639 5642 5645 5646 5647 5649 5652 5654 5655 5657 5660 5662 5664 5666 5668 5672 5675 5677 5680 5683 5684 5685 5687 5690 5692 5694 5696 5699 5702 5704 5706 5708 5710 5712 5714 5715 5717 5718 5720 5721 5722 5724 5725 5726 5727 5728 5729 5729 5730 5731 5731 5732 5733 5734 5734 5735 5736 5736 5737 5737 5738 5737 5737 5737 5737 5737 5736 5736 5736 5735 5735 5734 5733 5732 5731 5730 5729 5728 5727 5726 5724 5723 5722
5629 5632 5634 5638 5641 5642 5644 5645 5647 5649 5652 5653 5655 5659 5661 5662 5664 5667 5670 5674 5676 5678 5680 5682 5684 5686 5688 5690 5692 5694 5697 5700 5702 5704 5706 5708 5709 5711 5712 5714 5715 5717 5718 5720 5721 5722 5723 5724 5725 5726 5727 5728 5728 5729 5730 5731 5731 5732 5733 5733 5733 5734 5735 5735 5735 5735 5735 5734 5734 5734 5734 5733 5733 5732 5732 5731 5730 5729 5728 5727 5726 5725 5724 5723 5722 5720
5628 5630 5633 5636 5638 5639 5641 5644 5645 5647 5650 5652 5653 5656 5658 5661 5663 5666 5669 5671 5674 5676 5678 5679 5682 5685 5686 5689 5691 5693 5695 5697 5699 5702 5703 5705 5707 5709 5710 5711 5713 5714 5716 5717 5719 5719 5720 5722 5722 5723 5724 5725 5726 5726 5727 5727 5728 5729 5730 5730 5730 5731 5732 5732 5732 5732 5732 5732 5732 5731 5731 5730 5730 5729 5729 5728 5727 5727 5726 5725 5723 5722 5722 5721 5720 5718
5625 5628 5630 5633 5635 5637 5639 5642 5643 5645 5648 5650 5652 5654 5656 5659 5662 5665 5667 5669 5672 5675 5676 5677 5680 5683 5685 5687 5689 5691 5693 5695 5697 5699 5701 5703 5705 5706 5707 5709 5710 5712 5714 5715 5716 5717 5718 5719 5719 5720 5721 5721 5722 5723 5723 5724 5725 5726 5727 5727 5727 5728 5728 5729 5729 5729 5729 5729 5729 5729 5728 5728 5727 5727 5726 5726 5725 5724 5724 5723 5722 5720 5719 5719 5718 5716
5623 5625 5627 5630 5633 5635 5638 5640 5642 5644 5646 5648 5650 5652 5654 5657 5660 5662 5664 5667 5669 5672 5673 5675 5678 5681 5683 5685 5687 5689 5691 5692 5695 5697 5699 5701 5703 5704 5705 5706 5708 5709 5711 5712 5713 5714 5715 5716 5716 5717 5717 5718 5719 5720 5720 5721 5722 5723 5724 5724 5724 5724 5725 5725 5725 5725 5726 5726 5726 5726 5726 5725 5725 5724 5724 5723 5722 5722 5722 5721 5720 5719 5718 5717 5716 5714
5620 5624 5626 5630 5633 5635 5637 5639 5641 5642 5644 5646 5648 5650 5653 5656 5657 5659 5661 5664 5667 5670 5672 5674 5677 5678 5681 5683 5685 5687 5689 5691 5693 5696 5697 5699 5700 5701 5702 5703 5705 5706 5708 5709 5710 5711 5711 5713 5713 5713 5713 5714 5715 5716 5717 5718 5719 5720 5720 5720 5721 5721 5721 5721 5722 5722 5723 5723 5723 5723 5723 5723 5722 5722 5721 5720 5720 5719 5719 5718 5718 5717 5716 5715 5714 5713
5620 5623 5627 5630 5632 5633 5635 5637 5639 5641 5643 5645 5646 5648 5651 5653 5655 5656 5658 5662 5665 5668 5670 5672 5674 5677 5679 5681 5683 5685 5687 5689 5692 5694 5695 5696 5697 5698 5700 5701 5702 5704 5705 5705 5706 5707 5708 5709 5710 5710 5710 5711 5712 5713 5714 5715 5716 5717 5717 5717 5718 5718 5718 5718 5718 5719 5719 5719 5719 5720 5720 5720 5719 5719 5718 5718 5717 5717 5716 5716 5715 5714 5714 5713 5712 5711
5621 5624 5626 5629 5631 5632 5634 5636 5637 5639 5642 5643 5645 5647 5649 5651 5653 5654 5657 5661 5664 5666 5668 5670 5673 5675 5677 5679 5681 5683 5686 5688 5689 5691 5692 5693 5695 5696 5697 5699 5700 5701 5702 5702 5702 5703 5705 5706 5706 5707 5707 5708 5709 5709 5710 5712 5713 5713 5714 5714 5714 5714 5714 5715 5715 5716 5716 5716 5716 5716 5716 5716 5716 5716 5715 5715 5714 5714 5713 5713 5712 5712 5711 5710 5709 5709
5621 5623 5625 5627 5630 5631 5633 5635 5637 5638 5640 5642 5644 5646 5647 5649 5651 5653 5656 5660 5663 5664 5666 5668 5670 5672 5675 5677 5679 5682 5683 5685 5686 5687 5689 5691 5692 5694 5695 5696 5697 5698 5698 5699 5700 5701 5702 5702 5703 5704 5705 5705 5706 5706 5707 5708 5709 5710 5710 5710 5711 5711 5711 5712 5712 5713 5713 5713 5713 5713 5713 5712 5712 5712 5712 5712 5712 5711 5710 5709 5709 5709 5708 5708 5707 5706
5621 5623 5624 5626 5628 5630 5631 5633 5635 5637 5639 5641 5643 5644 5646 5648 5650 5653 5656 5659 5661 5663 5665 5667 5669 5671 5673 5675 5677 5679 5680 5682 5683 5685 5687 5688 5690 5691 5692 5693 5694 5695 5695 5696 5697 5698 5698 5699 5700 5701 5702 5702 5703 5703 5703 5704 5705 5706 5706 5707 5707 5708 5708 5708 5709 5709 5709 5709 5709 5709 5709 5709 5709 5709 5709 5709 5709 5708 5707 5706 5706 5705 5705 5705 5704 5704
5621 5623 5624 5625 5627 5629 5630 5632 5635 5636 5638 5640 5642 5644 5645 5648 5650 5653 5655 5658 5660 5661 5663 5665 5666 5668 5670 5672 5674 5676 5677 5679 5681 5682 5684 5685 5687 5688 5689 5690 5691 5692 5692 5693 5694 5694 5695 5696 5696 5697 5698 5699 5699 5700 5700 5700 5701 5702 5703 5703 5704 5704 5704 5705 5705 5705 5706 5706 5706 5706 5706 5705 5705 5705 5706 5706 5705 5705 5704 5703 5703 5702 5702 5702 5701 5701
5620 5622 5623 5625 5627 5629 5630 5631 5634 5636 5637 5639 5641 5643 5644 5647 5649 5651 5653 5655 5657 5659 5661 5662 5664 5666 5668 5669 5671 5673 5674 5676 5678 5679 5681 5682 5683 5684 5685 5687 5688 5689 5689 5690 5690 5691 5692 5692 5693 5693 5694 5695 5696 5697 5697 5697 5698 5698 5699 5700 5700 5700 5700 5701 5701 5701 5701 5702 5702 5702 5702 5702 5702 5702 5702 5702 5702 5702 5701 5701 5700 5700 5699 5699 5698 5698
5619 5621 5622 5624 5626 5627 5628 5630 5632 5635 5636 5638 5639 5641 5643 5645 5647 5649 5651 5653 5655 5657 5658 5660 5662 5663 5665 5667 5669 5670 5672 5673 5675 5676 5677 5679 5680 5681 5682 5683 5684 5685 5686 5687 5687 5688 5689 5689 5690 5690 5691 5692 5693 5693 5694 5694 5694 5695 5695 5696 5696 5696 5696 5697 5697 5697 5698 5698 5699 5699 5699 5699 5699 5699 5699 5698 5698 5698 5698 5697 5697 5697 5696 5696 5695 5695
5617 5619 5620 5622 5624 5626 5627 5628 5631 5633 5635 5636 5638 5640 5641 5643 5645 5647 5649 5651 5653 5655 5656 5658 5659 5661 5663 5664 5666 5668 5669 5671 5672 5673 5674 5675 5676 5678 5679 5680 5681 5682 5682 5683 5684 5685 5686 5686 5686 5687 5687 5688 5689 5690 5690 5691 5691 5692 5692 5693 5693 5693 5693 5693 5694 5694 5695 5695 5696 5696 5696 5696 5696 5696 5695 5695 5695 5695 5694 5694 5694 5694 5693 5692 5692 5691
5615 5616 5618 5620 5622 5623 5625 5627 5629 5631 5632 5634 5636 5638 5640 5642 5644 5646 5647 5649 5651 5652 5654 5655 5657 5658 5660 5662 5663 5665 5666 5667 5669 5670 5671 5672 5673 5674 5675 5676 5678 5678 5679 5680 5681 5682 5683 5683 5683 5684 5684 5685 5685 5686 5687 5687 5688 5689 5689 5689 5689 5690 5690 5691 5691 5692 5692 5692 5693 5693 5693 5693 5693 5692 5692 5692 5691 5691 5691 5690 5690 5690 5690 5689 5688 5688
5612 5614 5616 5618 5619 5621 5623 5624 5626 5628 5629 5631 5633 5635 5637 5639 5641 5643 5644 5646 5648 5649 5651 5652 5654 5655 5657 5658 5660 5661 5663 5664 5665 5667 5668 5669 5670 5671 5672 5673 5674 5675 5676 5677 5678 5679 5680 5680 5681 5681 5682 5682 5683 5684 5684 5684 5685 5686 5686 5687 5687 5687 5688 5688 5688 5689 5689 5689 5689 5689 5689 5689 5689 5689 5689 5688 5688 5688 5687 5687 5687 5686 5686 5686 5685 5685
5610 5612 5615 5616 5617 5619 5619 5621 5622 5624 5626 5629 5631 5633 5635 5636 5638 5639 5641 5643 5645 5646 5648 5649 5651 5652 5654 5655 5657 5658 5659 5661 5662 5663 5664 5665 5666 5667 5669 5670 5671 5672 5673 5674 5675 5676 5677 5678 5678 5678 5679 5679 5680 5681 5681 5682 5682 5683 5684 5684 5685 5685 5685 5685 5686 5686 5686 5686 5686 5686 5686 5686 5685 5685 5685 5685 5684 5684 5684 5683 5683 5682 5682 5682 5682 5681
5609 5610 5612 5613 5615 5616 5617 5619 5621 5623 5625 5627 5629 5630 5632 5633 5635 5636 5638 5640 5642 5643 5645 5646 5648 5649 5651 5652 5654 5655 5656 5658 5659 5660 5661 5662 5663 5664 5665 5667 5668 5669 5670 5671 5672 5673 5674 5675 5676 5676 5676 5677 5677 5678 5679 5679 5680 5680 5681 5681 5682 5682 5682 5683 5683 5683 5683 5683 5683 5683 5682 5682 5682 5682 5681 5681 5681 5680 5680 5679 5679 5678 5678 5678 5677 5677